DateTimeUTC,F1_A11,F1_S11,BsB_S11,BsG_S11,BsR_S11,BbsB_S11,BbsG_S11,BbsR_S11,BaB_A11,BaG_A11,BaR_A11,Tu_S11,T_S11,Uu_S11,U_S11,P_S11,T1_A11
2021-08-12T21:00:00Z,00040200,20000000,,,,,,,-000.38,-000.53,0000.03,18.4,25.2,05.6,03.7,0676.6,31.0
2021-08-12T21:01:00Z,00040200,20000000,,,,,,,-000.32,0000.44,-000.16,18.4,25.2,05.6,03.7,0676.6,31.0
2021-08-12T21:02:00Z,00040200,20000000,,,,,,,0000.04,-000.28,-000.25,18.5,25.2,05.6,03.7,0676.6,31.0
2021-08-12T21:03:00Z,00040200,60000000,,,,,,,0000.54,0000.25,0000.70,18.5,25.3,05.6,03.7,0676.6,31.0
2021-08-12T21:04:00Z,00040200,40000000,0002.84,0002.17,0001.39,0000.28,0000.07,0000.02,0000.37,0000.46,0000.05,18.7,25.1,05.6,03.8,0677.5,31.0
2021-08-12T21:05:00Z,00040200,00000000,0003.38,0002.07,0001.39,0000.77,0000.19,0000.23,0000.87,0000.70,0000.92,18.8,25.1,05.6,03.8,0677.6,31.0
2021-08-12T21:06:00Z,00040200,00000000,0002.96,0002.16,0000.93,0000.12,0000.49,0000.28,0000.53,0000.64,0000.26,18.7,25.1,05.7,03.9,0677.6,31.0
2021-08-12T21:07:00Z,00040200,00000000,0003.63,0001.95,0001.46,-000.04,0000.15,0000.03,0000.66,0000.65,0000.60,18.7,25.0,05.7,03.9,0677.6,31.0
2021-08-12T21:08:00Z,00040200,00000000,0003.53,0002.07,0001.31,-000.17,-000.06,0000.13,0000.87,0000.63,0000.70,18.7,25.0,05.8,04.0,0677.6,31.0
2021-08-12T21:09:00Z,00040200,00000000,0002.83,0002.14,0001.02,0001.34,-000.24,0000.07,0000.44,0000.74,0000.44,18.7,25.0,06.0,04.1,0677.6,31.0
2021-08-12T21:10:00Z,00040200,00000000,0002.95,0002.04,0001.37,0000.45,0000.43,0000.20,0000.67,0000.79,0000.71,18.6,25.0,06.1,04.1,0677.5,31.0
2021-08-12T21:11:00Z,00040200,00000000,0002.08,0001.78,0001.48,-000.28,0000.35,0000.41,0000.77,0000.50,0000.53,18.6,25.0,06.1,04.1,0677.5,31.0
2021-08-12T21:12:00Z,00040200,00000000,0002.70,0001.68,0001.27,0000.40,-000.02,0000.36,0000.74,0000.59,0000.59,18.6,25.0,06.2,04.2,0677.5,31.0
2021-08-12T21:13:00Z,00040200,00000000,0002.74,0001.99,0001.40,0000.37,0000.20,0000.44,0000.47,0000.44,0000.14,18.6,25.0,06.3,04.3,0677.5,31.0
2021-08-12T21:14:00Z,00040200,00000000,0002.97,0001.86,0001.38,0000.08,0000.21,0000.16,0000.61,0000.57,0000.12,18.7,25.0,06.3,04.3,0677.5,31.0
2021-08-12T21:15:00Z,00040200,00000000,0003.13,0001.58,0001.28,0000.59,0000.28,0000.14,0000.65,0000.71,0000.65,18.7,25.0,06.4,04.3,0677.5,31.0
2021-08-12T21:16:00Z,00040200,00000000,0002.95,0001.88,0001.04,0000.77,0000.16,0000.16,0000.76,0000.22,0000.78,18.7,25.0,06.5,04.4,0677.5,31.0
2021-08-12T21:17:00Z,00040200,00000000,0003.60,0001.47,0001.11,-000.18,0000.13,0000.05,0000.25,0000.85,0000.22,18.7,25.0,06.4,04.4,0677.6,31.0
2021-08-12T21:18:00Z,00040200,00000000,0002.86,0001.75,0001.14,0000.35,0000.44,0000.27,0000.51,-000.09,-000.11,18.7,25.0,06.4,04.4,0677.6,31.0
2021-08-12T21:19:00Z,00040200,00000000,0003.13,0001.78,0001.41,0000.61,0000.32,0000.17,0000.38,0000.68,0001.03,18.7,25.0,06.4,04.4,0677.6,31.0
2021-08-12T21:20:00Z,00040200,00000000,0003.10,0001.58,0001.24,0000.59,0000.23,0000.13,0000.84,0001.10,0000.35,18.7,25.0,06.5,04.4,0677.6,31.0
2021-08-12T21:21:00Z,00040200,00000000,0003.18,0002.05,0001.36,0000.29,0000.12,0000.38,0000.29,0000.13,0000.54,18.7,24.9,06.6,04.5,0677.5,31.0
2021-08-12T21:22:00Z,00040200,00000000,0003.01,0001.56,0001.05,-000.09,0000.29,0000.14,0000.52,0000.27,0000.14,18.6,25.0,06.6,04.5,0677.5,31.0
2021-08-12T21:23:00Z,00040200,00000000,0003.16,0002.05,0001.36,-000.05,0000.23,0000.30,0000.72,0000.85,0000.64,18.6,24.9,06.5,04.4,0677.5,31.0
2021-08-12T21:24:00Z,00040200,00000000,0002.67,0002.12,0001.49,0000.08,0000.14,0000.24,0000.55,0000.41,0000.55,18.6,24.9,06.7,04.6,0677.6,31.0
2021-08-12T21:25:00Z,00040200,00000000,0003.01,0002.00,0001.33,0000.22,0000.28,0000.11,0000.52,0000.47,0000.09,18.6,24.9,06.7,04.6,0677.6,31.0
2021-08-12T21:26:00Z,00040200,00000000,0002.78,0001.74,0001.26,0000.47,0000.36,0000.26,0000.72,0000.59,0000.49,18.6,24.9,06.8,04.6,0677.5,31.0
2021-08-12T21:27:00Z,00040200,00000000,0002.89,0001.74,0001.36,0000.57,0000.77,0000.45,0000.41,0000.42,0000.65,18.6,24.9,06.8,04.7,0677.6,31.0
2021-08-12T21:28:00Z,00040200,00000000,0003.00,0001.74,0001.54,0000.38,0000.04,0000.22,0000.59,0000.57,0000.29,18.6,24.9,06.9,04.7,0677.6,31.0
2021-08-12T21:29:00Z,00040200,00000000,0002.92,0001.59,0001.15,0000.76,0000.07,0000.21,0000.55,0000.53,0000.71,18.7,24.9,06.8,04.6,0677.6,31.0
2021-08-12T21:30:00Z,00040200,00000000,0003.43,0001.78,0001.25,0000.58,0000.19,0000.27,0000.34,0000.49,0000.05,18.7,24.9,06.8,04.6,0677.6,31.0
2021-08-12T21:31:00Z,00040200,00000000,0002.68,0002.17,0001.19,0000.48,0000.23,-000.10,0000.58,0000.45,0000.64,18.7,24.9,06.7,04.6,0677.6,31.0
2021-08-12T21:32:00Z,00040200,00000000,0003.45,0002.16,0001.09,0000.10,0000.24,-000.04,0000.32,0000.08,-000.06,18.7,24.9,06.8,04.6,0677.6,31.0
2021-08-12T21:33:00Z,00040200,00000000,0002.62,0002.13,0001.30,0000.49,0000.10,0000.38,0000.32,0000.83,0000.17,18.7,24.9,06.9,04.7,0677.6,31.0
2021-08-12T21:34:00Z,00040200,00000000,0003.07,0002.03,0001.48,0000.63,0000.06,0000.02,0000.56,0000.20,0000.26,18.7,24.9,06.9,04.7,0677.6,31.0
2021-08-12T21:35:00Z,00040200,00000000,0002.78,0001.81,0001.43,0000.38,0000.37,0000.35,0000.34,0000.16,0000.62,18.7,24.9,06.8,04.6,0677.6,31.0
2021-08-12T21:36:00Z,00040200,00000000,0003.03,0001.87,0001.08,0000.47,0000.30,0000.20,0000.57,0000.57,0000.32,18.7,24.9,06.8,04.6,0677.6,31.0
2021-08-12T21:37:00Z,00040200,00000000,0002.98,0001.75,0000.93,0000.63,0000.12,0000.11,0000.65,0000.28,0000.46,18.6,24.9,06.9,04.7,0677.6,31.0
2021-08-12T21:38:00Z,00040200,00000000,0002.72,0001.56,0001.29,0000.31,0000.20,0000.41,0000.22,0000.73,0000.47,18.6,24.9,07.0,04.8,0677.7,31.0
2021-08-12T21:39:00Z,00040200,00000000,0003.00,0001.71,0001.22,0000.47,0000.27,0000.16,0000.41,0000.13,0000.03,18.6,24.9,06.9,04.7,0677.7,31.0
2021-08-12T21:40:00Z,00040200,00000000,0001.83,0001.82,0000.91,0000.92,0000.12,-000.15,0000.68,0001.00,0000.58,18.6,24.8,06.9,04.7,0677.7,31.0
2021-08-12T21:41:00Z,00040200,00000000,0002.97,0001.51,0001.47,-000.06,0000.01,0000.02,0000.73,0000.16,0000.28,18.5,24.8,06.9,04.7,0677.7,31.0
2021-08-12T21:42:00Z,00040200,00000000,0002.34,0001.74,0001.28,0000.39,0000.15,0000.07,0000.40,0000.26,0000.41,18.5,24.8,07.0,04.8,0677.7,31.0
2021-08-12T21:43:00Z,00040200,00000000,0002.71,0001.42,0001.02,0000.42,0000.18,0000.10,0000.70,0001.32,0000.75,18.6,24.8,07.1,04.8,0677.7,31.0
2021-08-12T21:44:00Z,00040200,00000000,0002.61,0001.69,0001.18,0000.16,0000.23,0000.22,0000.58,0000.13,0000.05,18.6,24.8,07.0,04.8,0677.6,31.0
2021-08-12T21:45:00Z,00040200,00000000,0002.51,0001.88,0001.08,0000.43,0000.27,-000.00,0000.19,0000.39,0000.62,18.7,24.9,07.0,04.8,0677.7,31.0
2021-08-12T21:46:00Z,00040200,00000000,0002.18,0001.51,0000.96,0000.36,0000.52,0000.32,0000.28,0000.42,0000.45,18.8,24.9,07.1,04.8,0677.7,31.0
2021-08-12T21:47:00Z,00040200,00000000,0001.98,0001.93,0001.28,0000.33,0000.15,0000.39,0000.59,0000.26,-000.05,18.8,25.0,07.0,04.8,0677.6,31.0
2021-08-12T21:48:00Z,00040200,00000000,0003.28,0001.75,0001.25,0000.42,0000.39,0000.49,0000.71,0000.36,0000.63,18.8,25.0,07.1,04.8,0677.7,31.0
2021-08-12T21:49:00Z,00040200,00000000,0003.35,0001.78,0001.15,0000.09,0000.05,0000.30,0000.26,0000.61,0000.49,18.8,24.9,07.0,04.8,0677.7,31.0
2021-08-12T21:50:00Z,00040200,00000000,0002.50,0001.63,0000.96,0000.03,0000.26,0000.08,0000.27,0000.31,0000.12,18.7,24.9,07.1,04.9,0677.7,31.0
2021-08-12T21:51:00Z,00040200,00000000,0002.36,0001.85,0001.26,-000.04,-000.12,0000.18,0000.58,0000.66,0000.40,18.7,24.9,07.1,04.8,0677.7,31.0
2021-08-12T21:52:00Z,00040200,00000000,0002.97,0001.71,0001.01,0000.62,0000.28,0000.18,0000.52,0000.38,0000.34,18.7,24.9,07.2,04.9,0677.7,31.0
2021-08-12T21:53:00Z,00040200,00000000,0002.99,0001.72,0001.55,0000.47,0000.43,0000.42,0000.63,0000.46,0000.87,18.7,24.9,07.2,04.9,0677.7,31.0
2021-08-12T21:54:00Z,00040200,00000000,0002.55,0001.40,0001.23,0000.43,-000.14,0000.10,0000.47,0000.21,-000.26,18.6,24.9,07.1,04.8,0677.7,31.0
2021-08-12T21:55:00Z,00040200,00000000,0003.22,0001.69,0000.92,-000.03,0000.24,0000.10,0000.26,0000.24,0000.33,18.6,24.8,07.2,04.9,0677.7,31.0
2021-08-12T21:56:00Z,00040200,00000000,0001.96,0002.05,0001.22,0000.30,0000.41,0000.29,0000.24,0000.77,0000.44,18.6,24.8,07.3,05.0,0677.7,31.0
2021-08-12T21:57:00Z,00040200,40000000,,,,,,,0000.04,-000.47,-000.57,18.6,24.9,07.6,05.2,0677.7,31.0
2021-08-12T21:58:00Z,00040200,60000000,,,,,,,0000.37,0000.21,0000.63,18.4,25.0,07.1,04.7,0676.7,31.0
2021-08-12T21:59:00Z,00040200,20000000,,,,,,,-000.19,0000.10,0000.18,18.4,25.1,06.9,04.6,0676.6,31.0
